Stations météo

réclame
Mon MeteoGroup
Marseille/Marignane, France (7650): Température de l'air & dewpoint: 25.05.2020 02:00:00 - 31.05.2020 02:00:00 (CEST)Marseille/Marignane, France (7650): Température de l'air 5cm: 25.05.2020 02:00:00 - 31.05.2020 02:00:00 (CEST)Marseille/Marignane, France (7650): Température de l'air -20cm & Température de l'air -100cm: 25.05.2020 02:00:00 - 31.05.2020 02:00:00 (CEST)Marseille/Marignane, France (7650): Vitesse du vent & gusts: 25.05.2020 02:00:00 - 31.05.2020 02:00:00 (CEST)Marseille/Marignane, France (7650): Direction du vent: 25.05.2020 02:00:00 - 31.05.2020 02:00:00 (CEST)Marseille/Marignane, France (7650): reduced air pressure: 25.05.2020 02:00:00 - 31.05.2020 02:00:00 (CEST)Marseille/Marignane, France (7650): visibility: 25.05.2020 02:00:00 - 31.05.2020 02:00:00 (CEST)Marseille/Marignane, France (7650): Ensoleillement: 25.05.2020 02:00:00 - 31.05.2020 02:00:00 (CEST)Marseille/Marignane, France (7650): Quantités de précipitations: 25.05.2020 02:00:00 - 31.05.2020 02:00:00 (CEST)
Date & Time tt [°C] td [°C] tt 5cm [°C] tt -20cm [°C] tt -100cm [°C] ff [km/h] ff [knt] fx [km/h] fx [knt] dd ppp [hPa] vv [km] sd [min] rr [mm]
31.05.2020 02:00:00 15,1 9,9 12,2 20,0 17,3 9 5 12 7 ESE 1016,4 47 0 0,0
31.05.2020 01:00:00 15,2 12,0 12,1 20,2 17,3 9 5 12 6 ESE 1016,8 38 0 0,0
31.05.2020 00:00:00 15,9 12,1 12,8 20,4 17,3 9 5 10 5 SE 1016,7 45 0 0,0
30.05.2020 23:00:00 16,5 12,6 13,4 20,6 17,3 9 5 13 7 SE 1016,7 49 0 0,0
30.05.2020 22:00:00 17,9 12,8 16,0 20,7 17,3 8 5 16 8 S 1016,1 51 0 0,0
30.05.2020 21:00:00 19,4 10,9 18,1 20,7 17,3 12 6 16 9 S 1015,7 41 47 0,0
30.05.2020 20:00:00 20,7 10,5 22,3 20,6 17,3 14 8 23 12 SSW 1015,4 29 60 0,0
30.05.2020 19:00:00 22,2 9,7 26,3 20,5 17,3 17 9 27 15 SW 1015,2 26 60 0,0
30.05.2020 18:00:00 22,9 8,2 27,5 20,3 17,3 19 10 30 16 SSW 1015,5 20 60 0,0
30.05.2020 17:00:00 23,3 10,0 28,7 20,0 17,3 20 11 30 16 SSW 1015,7 23 60 0,0
30.05.2020 16:00:00 22,9 9,3 28,5 19,7 17,3 21 12 34 18 SSW 1016,3 22 60 0,0
30.05.2020 15:00:00 23,6 9,6 29,6 19,4 17,3 19 10 30 16 SW 1016,5 22 60 0,0
30.05.2020 14:00:00 23,8 9,4 29,6 19,1 17,3 21 12 29 16 WSW 1016,7 20 60 0,0
30.05.2020 13:00:00 23,8 9,0 29,9 18,9 17,3 22 12 29 15 WSW 1016,8 29 60 0,0
30.05.2020 12:00:00 23,0 9,7 28,9 18,8 17,3 14 8 21 12 W 1017,0 20 60 0,0
30.05.2020 11:00:00 22,1 11,5 25,6 18,7 17,3 11 6 16 9 W 1017,3 42 60 0,0
30.05.2020 10:00:00 21,2 12,1 21,3 18,7 17,3 5 3 13 7 N 1017,6 42 60 0,0
30.05.2020 09:00:00 18,9 10,5 19,5 18,8 17,3 8 5 14 8 NNE 1017,9 48 29 0,0
30.05.2020 08:00:00 17,3 10,2 12,9 18,9 17,3 9 5 15 8 E 1017,9 38 20 0,0
30.05.2020 07:00:00 14,4 9,4 11,4 19,1 17,3 5 3 11 6 SE 1018,0 57 0 0,0
30.05.2020 06:00:00 14,7 8,9 11,5 19,3 17,3 3 2 7 4 SSW 1017,8 60 0 0,0
30.05.2020 05:00:00 13,9 9,1 11,2 19,5 17,3 7 4 10 6 SE 1018,1 60 0 0,0
30.05.2020 04:00:00 15,7 9,4 13,7 19,7 17,3 3 2 18 10 NW 1018,5 60 0 0,0
30.05.2020 03:00:00 16,2 9,8 15,1 19,8 17,3 12 7 23 12 E 1018,5 60 0 0,0
30.05.2020 02:00:00 16,6 10,0 15,0 20,0 17,3 12 6 20 11 E 1018,7 60 0 0,0
30.05.2020 01:00:00 17,6 10,2 16,4 20,1 17,2 13 7 24 13 ENE 1018,8 60 0 0,0
30.05.2020 00:00:00 18,1 10,0 16,6 20,3 17,2 11 6 19 10 ENE 1018,9 60 0 0,0
29.05.2020 23:00:00 18,6 9,1 17,1 20,4 17,2 8 4 24 13 E 1019,0 60 0 0,0
29.05.2020 22:00:00 19,2 7,6 17,6 20,6 17,2 14 8 23 13 ENE 1018,6 60 0 0,0
29.05.2020 21:00:00 20,2 8,8 20,0 20,7 17,2 14 7 36 19 E 1018,0 47 11 0,0
29.05.2020 20:00:00 20,8 9,7 21,1 20,7 17,2 28 15 41 22 E 1017,3 20 6 0,0
29.05.2020 19:00:00 22,4 10,2 23,6 20,7 17,2 24 13 47 25 ESE 1017,6 23 11 0,0
29.05.2020 18:00:00 23,2 11,3 24,7 20,7 17,2 29 16 44 24 ESE 1017,0 24 6 0,0
29.05.2020 17:00:00 23,3 11,4 24,3 20,6 17,2 30 16 44 24 SSE 1016,6 20 0 0,0
29.05.2020 16:00:00 25,5 13,4 26,3 20,3 17,2 26 14 41 22 SSE 1016,3 19 11 0,0
29.05.2020 15:00:00 25,1 14,8 27,1 20,0 17,2 32 17 44 24 SSE 1016,5 20 36 0,0
29.05.2020 14:00:00 24,9 14,4 27,7 19,8 17,2 22 12 40 22 S 1016,7 21 57 0,0
29.05.2020 13:00:00 22,8 15,1 26,6 19,6 17,2 24 13 37 20 S 1016,7 24 35 0,0
29.05.2020 12:00:00 23,0 16,5 25,5 19,4 17,2 14 7 23 12 WSW 1016,8 20 39 0,0
29.05.2020 11:00:00 21,3 15,4 24,8 19,3 17,2 9 5 18 10 WSW 1016,7 45 25 0,0
29.05.2020 10:00:00 20,9 15,4 23,0 19,3 17,2 9 5 13 7 W 1016,7 20 60 0,0
29.05.2020 09:00:00 20,1 15,7 20,4 19,4 17,2 7 4 14 7 W 1017,0 19 34 0,0
29.05.2020 08:00:00 18,7 14,8 15,3 19,5 17,2 5 3 11 6 SE 1017,0 20 55 0,0
29.05.2020 07:00:00 15,5 13,2 12,7 19,7 17,2 7 4 10 5 SE 1017,3 25 29 0,0
29.05.2020 06:00:00 15,4 12,7 13,0 19,8 17,2 6 3 11 6 E 1017,4 45 0 0,0
29.05.2020 05:00:00 16,4 13,3 13,0 20,0 17,2 10 5 13 7 E 1017,6 55 0 0,0
29.05.2020 04:00:00 15,9 13,4 13,1 20,2 17,2 9 5 15 8 ESE 1018,3 55 0 0,0
29.05.2020 03:00:00 15,7 13,5 14,1 20,3 17,1 12 6 15 8 SE 1018,8 56 0 0,0
29.05.2020 02:00:00 15,9 13,4 13,8 20,5 17,2 10 5 14 7 SE 1019,5 55 0 0,0
29.05.2020 01:00:00 16,3 13,4 13,8 20,7 17,1 8 4 14 8 SE 1019,9 58 0 0,0
29.05.2020 00:00:00 16,5 14,0 14,5 20,8 17,2 11 6 13 7 SE 1020,5 58 0 0,0
28.05.2020 23:00:00 17,3 14,0 15,7 20,9 17,2 9 5 13 7 SSE 1021,0 53 0 0,0
28.05.2020 22:00:00 19,3 13,7 17,7 21,1 17,1 7 4 22 12 S 1020,8 60 0 0,0
28.05.2020 21:00:00 20,3 11,5 19,5 21,1 17,2 16 8 29 15 SW 1020,8 37 45 0,0
28.05.2020 20:00:00 22,2 12,2 23,4 21,1 17,2 19 11 31 17 WSW 1020,7 21 60 0,0
28.05.2020 19:00:00 23,5 11,5 27,4 21,0 17,1 23 13 33 18 WSW 1020,6 12 60 0,0
28.05.2020 18:00:00 24,4 12,0 29,1 20,8 17,1 21 12 36 19 WSW 1021,1 8 60 0,0
28.05.2020 17:00:00 24,5 12,4 29,4 20,6 17,1 26 14 40 22 WSW 1021,5 13 60 0,0
28.05.2020 16:00:00 25,1 14,2 29,6 20,2 17,1 27 15 40 22 WSW 1021,8 17 60 0,0
28.05.2020 15:00:00 25,5 14,6 29,9 19,9 17,1 27 15 38 21 WSW 1022,4 20 60 0,0
28.05.2020 14:00:00 25,0 15,0 30,5 19,6 17,1 26 14 35 19 WSW 1023,1 25 60 0,0
28.05.2020 13:00:00 24,1 14,5 30,7 19,3 17,1 19 10 26 14 WSW 1023,9 32 60 0,0
28.05.2020 12:00:00 23,2 13,4 28,4 19,2 17,1 10 5 16 9 WSW 1024,6 34 60 0,0
28.05.2020 11:00:00 21,9 14,0 25,1 19,1 17,1 11 6 16 9 WSW 1025,4 20 60 0,0
28.05.2020 10:00:00 20,3 14,0 23,7 19,1 17,1 6 3 12 6 WSW 1025,9 20 60 0,0
28.05.2020 09:00:00 19,8 14,4 21,0 19,1 17,1 4 2 9 5 NNW 1026,3 20 60 0,0
28.05.2020 08:00:00 19,4 14,0 14,5 19,2 17,0 2 1 11 6 ESE 1026,6 29 60 0,0
28.05.2020 07:00:00 14,8 12,1 11,9 19,5 17,1 8 4 12 7 SE 1026,9 24 33 0,0
28.05.2020 06:00:00 13,5 11,0 11,6 19,6 17,1 10 5 13 7 SE 1026,9 47 0 0,0
28.05.2020 05:00:00 13,7 11,4 12,4 19,8 17,1 11 6 15 8 SE 1027,0 55 0 0,0
28.05.2020 04:00:00 14,2 11,9 12,7 20,0 17,1 9 5 13 7 SE 1027,3 57 0 0,0
28.05.2020 03:00:00 14,6 11,9 12,9 20,2 17,1 9 5 11 6 SE 1027,7 60 0 0,0
28.05.2020 02:00:00 15,3 12,2 13,1 20,4 17,1 9 5 13 7 SE 1028,0 58 0 0,0
28.05.2020 01:00:00 15,7 12,4 13,3 20,6 17,1 10 5 16 8 SE 1028,3 59 0 0,0
28.05.2020 00:00:00 16,1 12,5 12,8 20,8 17,1 7 4 11 6 SSE 1028,4 58 0 0,0
27.05.2020 23:00:00 18,3 13,2 13,9 20,9 17,1 0 0 9 5 N 1028,4 16 0 0,0
27.05.2020 22:00:00 18,3 13,8 16,1 21,1 17,1 5 3 15 8 S 1028,0 57 0 0,0
27.05.2020 21:00:00 20,0 13,7 19,5 21,2 17,1 9 5 18 10 S 1027,8 38 44 0,0
27.05.2020 20:00:00 21,6 12,2 23,3 21,2 17,1 14 7 23 13 S 1027,6 19 60 0,0
27.05.2020 19:00:00 22,9 8,9 27,3 21,1 17,1 16 9 29 16 S 1027,6 18 60 0,0
27.05.2020 18:00:00 24,1 9,3 29,5 21,0 17,0 22 12 34 18 S 1027,7 8 60 0,0
27.05.2020 17:00:00 25,1 9,8 28,7 20,8 17,1 23 12 36 19 S 1027,8 13 55 0,0
27.05.2020 16:00:00 25,4 8,0 30,9 20,6 17,1 25 13 44 24 S 1028,0 17 60 0,0
27.05.2020 15:00:00 25,7 4,7 31,4 20,3 17,0 25 14 37 20 S 1028,2 20 60 0,0
27.05.2020 14:00:00 26,1 8,6 31,8 19,9 17,0 23 12 37 20 S 1028,2 24 60 0,0
27.05.2020 13:00:00 26,4 10,9 32,8 19,7 17,0 22 12 40 22 S 1028,4 20 60 0,0
27.05.2020 12:00:00 25,6 10,6 28,0 19,5 17,0 15 8 41 22 SSE 1028,1 34 45 0,0
27.05.2020 11:00:00 24,5 11,4 28,7 19,4 17,0 19 10 37 20 ESE 1027,9 47 38 0,0
27.05.2020 10:00:00 23,7 13,3 23,0 19,4 17,0 7 4 15 8 E 1027,8 46 11 0,0
27.05.2020 09:00:00 20,9 12,6 19,6 19,5 17,0 11 6 17 9 E 1027,3 27 0 0,0
27.05.2020 08:00:00 19,2 11,7 16,4 19,6 17,0 8 4 11 6 SE 1026,9 44 4 0,0
27.05.2020 07:00:00 18,0 11,3 13,5 19,8 17,0 5 3 12 7 SE 1026,4 47 8 0,0
27.05.2020 06:00:00 18,0 10,6 13,2 20,0 17,0 6 4 15 8 ESE 1026,0 55 0 0,0
27.05.2020 05:00:00 19,1 9,6 14,0 20,1 17,0 6 4 16 9 NE 1025,5 60 0 0,0
27.05.2020 04:00:00 18,7 9,5 17,2 20,4 17,0 12 6 18 10 E 1025,2 60 0 0,0
27.05.2020 03:00:00 19,9 8,9 17,5 20,5 17,0 12 6 16 9 ESE 1025,2 60 0 0,0
27.05.2020 02:00:00 19,2 11,7 17,4 20,7 17,0 14 7 19 11 ESE 1024,9 60 0 0,0
27.05.2020 01:00:00 18,7 11,3 16,9 20,9 17,0 10 6 16 9 SE 1024,9 60 0 0,0
27.05.2020 00:00:00 19,2 9,9 17,5 21,1 17,0 9 5 24 13 SSE 1024,7 55 0 0,0
26.05.2020 23:00:00 20,6 11,5 18,8 21,3 17,0 15 8 22 12 S 1024,7 33 0 0,0
26.05.2020 22:00:00 21,2 11,8 19,9 21,4 17,0 16 8 23 12 S 1024,2 54 0 0,0
26.05.2020 21:00:00 22,6 9,7 22,1 21,4 17,0 16 9 26 14 S 1023,7 21 44 0,0
26.05.2020 20:00:00 24,6 10,8 26,1 21,4 17,0 16 8 25 14 S 1023,4 29 60 0,0
26.05.2020 19:00:00 25,7 11,8 29,7 21,3 17,0 19 10 34 19 S 1023,4 17 60 0,0
26.05.2020 18:00:00 26,3 12,0 31,6 21,0 17,0 25 14 35 19 S 1023,3 14 60 0,0
26.05.2020 17:00:00 27,2 12,8 32,7 20,7 17,0 25 13 35 19 S 1023,5 28 60 0,0
26.05.2020 16:00:00 28,3 14,2 34,2 20,3 17,0 16 9 21 12 WSW 1023,7 19 60 0,0
26.05.2020 15:00:00 28,1 13,2 34,5 19,9 17,0 11 6 16 8 W 1023,9 34 60 0,0
26.05.2020 14:00:00 27,4 13,3 34,1 19,6 17,0 11 6 17 9 W 1024,2 20 60 0,0
26.05.2020 13:00:00 26,3 12,0 32,2 19,3 17,0 14 7 23 12 W 1024,4 28 60 0,0
26.05.2020 12:00:00 24,8 13,7 29,9 19,2 17,0 18 10 24 13 W 1024,5 28 60 0,0
26.05.2020 11:00:00 23,3 13,2 27,0 19,1 17,0 17 9 21 11 W 1024,4 28 60 0,0
26.05.2020 10:00:00 22,2 13,0 24,1 19,2 16,9 13 7 18 10 W 1024,4 19 60 0,0
26.05.2020 09:00:00 20,6 12,6 20,8 19,3 17,0 13 7 22 12 NNW 1024,0 30 60 0,0
26.05.2020 08:00:00 18,9 11,9 16,8 19,4 16,9 16 9 44 24 N 1023,7 39 60 0,0
26.05.2020 07:00:00 17,5 11,5 12,0 19,6 16,9 19 10 27 15 N 1023,4 50 32 0,0
26.05.2020 06:00:00 14,6 11,0 12,2 19,8 17,0 12 6 20 11 N 1023,2 58 0 0,0
26.05.2020 05:00:00 18,4 11,2 14,7 19,9 16,9 13 7 18 10 N 1023,1 60 0 0,0
26.05.2020 04:00:00 18,3 11,1 15,4 20,1 16,9 15 8 23 13 N 1023,3 60 0 0,0
26.05.2020 03:00:00 19,3 10,8 18,5 20,2 16,9 17 9 26 14 NW 1023,4 60 0 0,0
26.05.2020 02:00:00 20,4 11,1 17,6 20,4 17,0 10 5 29 16 NNW 1023,6 60 0 0,0
26.05.2020 01:00:00 21,2 11,5 19,8 20,5 16,9 14 8 27 15 N 1023,7 60 0 0,0
26.05.2020 00:00:00 21,1 12,5 20,4 20,7 16,9 20 11 30 16 WNW 1023,9 60 0 0,0
25.05.2020 23:00:00 22,1 12,6 21,5 20,8 16,9 23 12 36 19 WNW 1024,1 60 0 0,0
25.05.2020 22:00:00 22,9 12,2 21,2 20,9 16,9 23 12 32 18 NW 1023,9 60 0 0,0
25.05.2020 21:00:00 23,5 14,5 23,3 20,8 16,9 19 10 29 16 W 1023,6 30 43 0,0
25.05.2020 20:00:00 26,1 10,7 27,7 20,7 16,9 20 11 27 15 NW 1023,3 31 60 0,0
25.05.2020 19:00:00 26,6 14,0 31,0 20,6 16,9 16 9 29 16 W 1023,6 25 60 0,0
25.05.2020 18:00:00 27,5 13,1 33,8 20,3 16,9 18 10 26 14 WSW 1023,9 25 60 0,0
25.05.2020 17:00:00 27,7 12,9 34,1 19,9 16,9 19 10 28 15 WSW 1024,3 25 60 0,0
25.05.2020 16:00:00 27,8 11,4 34,1 19,6 16,9 16 9 24 13 WSW 1024,9 26 60 0,0
25.05.2020 15:00:00 27,3 12,1 34,5 19,2 16,9 13 7 20 11 W 1025,1 27 60 0,0
25.05.2020 14:00:00 27,1 12,3 32,7 18,9 16,9 16 9 24 13 W 1025,5 29 60 0,0
25.05.2020 13:00:00 25,9 13,4 32,0 18,6 16,9 20 11 25 13 W 1025,5 36 60 0,0
25.05.2020 12:00:00 24,5 13,4 30,5 18,4 16,9 17 9 22 12 W 1025,7 47 60 0,0
25.05.2020 11:00:00 23,5 12,5 26,9 18,3 16,9 9 5 16 9 W 1025,8 56 55 0,0
25.05.2020 10:00:00 21,7 11,7 23,0 18,4 16,9 7 4 13 7 WNW 1026,2 24 60 0,0
25.05.2020 09:00:00 19,5 11,8 19,6 18,4 16,9 6 4 10 6 NNW 1026,0 48 60 0,0
25.05.2020 08:00:00 17,4 12,1 14,1 18,6 16,9 2 1 8 5 SSE 1025,6 47 60 0,0
25.05.2020 07:00:00 14,3 10,9 11,4 18,7 16,9 6 3 10 5 SSE 1025,4 49 31 0,0
25.05.2020 06:00:00 13,3 9,7 10,7 18,9 16,9 6 3 11 6 SE 1025,0 45 0 0,0
25.05.2020 05:00:00 13,3 9,9 11,2 19,1 16,9 8 4 12 7 SSE 1024,9 60 0 0,0
25.05.2020 04:00:00 14,1 9,9 11,0 19,3 16,8 6 4 9 5 SSE 1024,9 60 0 0,0
25.05.2020 03:00:00 14,3 9,7 11,4 19,5 16,9 6 3 10 6 S 1024,8 56 0 0,0
25.05.2020 02:00:00 14,5 9,5 11,9 19,7 16,8 8 4 11 6 SE 1024,9 60 0 0,0

tt = Température de l'air
td = dewpoint
tt 5cm = Température de l'air 5cm
tt -20cm = Température de l'air -20cm
tt -100cm = Température de l'air -100cm
ff = Vitesse du vent
fx = gusts
dd = Direction du vent
ppp = reduced air pressure
vv = visibility
sd = Ensoleillement
rr = Quantités de précipitations

stations d'obs. à proximité